Location: Newark
(39.9581°N, 97.2014°W)
Time: 12:36:51
(UTC+00:00)

Vanguard 1 - All Passes

Search period start: 21 February 2020 00:00
Search period end: 02 March 2020 00:00
Orbit: 650 x 3833 km, 34.2° (Epoch: 20 February)

Date Brightness Start Highest point End Pass type
(mag) Time Alt. Az. Time Alt. Az. Time Alt. Az.
21 Feb - 12:10:15 10° SSW 12:28:35 31° SE 12:43:19 10° E visible
21 Feb - 14:31:42 10° SW 14:53:05 56° SSE 15:06:28 10° E daylight
21 Feb - 16:58:26 10° WSW 17:16:56 69° S 17:26:50 10° E daylight
21 Feb - 19:26:03 10° W 19:38:40 49° SSW 19:45:38 10° SE daylight
21 Feb - 21:54:15 10° WSW 21:57:34 13° SW 22:00:19 10° SSW daylight
22 Feb - 10:18:05 10° SSE 10:25:52 13° SE 10:33:21 10° ESE visible
22 Feb - 12:29:36 10° SSW 12:49:38 38° SSE 13:05:11 10° E visible
22 Feb - 14:52:40 10° WSW 15:14:20 62° SSE 15:27:31 10° E daylight
22 Feb - 17:20:04 10° W 17:38:05 68° S 17:47:39 10° ESE daylight
22 Feb - 19:47:43 10° W 19:59:19 41° SSW 20:06:00 10° SE daylight
23 Feb - 10:33:12 10° S 10:46:39 19° SE 10:59:17 10° E visible
23 Feb - 12:49:30 10° SSW 13:10:45 45° SSE 13:26:43 10° E visible
23 Feb - 15:13:54 10° WSW 15:35:37 67° S 15:48:31 10° E daylight
23 Feb - 17:41:44 10° W 17:59:10 66° SSW 18:08:25 10° ESE daylight
23 Feb - 20:09:29 10° W 20:19:49 32° SW 20:26:07 10° SSE daylight
24 Feb - 10:50:53 10° S 11:07:28 26° SE 11:22:42 10° E visible
24 Feb - 13:09:49 10° SW 13:31:56 52° SSE 13:48:03 10° E daylight
24 Feb - 15:35:19 10° WSW 15:56:55 70° S 16:09:27 10° E daylight
24 Feb - 18:03:25 10° W 18:20:09 60° SSW 18:29:04 10° ESE daylight
24 Feb - 20:31:31 10° W 20:40:10 24° SW 20:45:53 10° S daylight
25 Feb - 11:09:39 10° SSW 11:28:18 33° SE 11:45:09 10° E visible
25 Feb - 13:30:29 10° SW 13:53:12 59° SSE 14:09:15 10° E daylight
25 Feb - 15:56:53 10° WSW 16:18:12 72° S 16:30:22 10° E daylight
25 Feb - 18:25:08 10° W 18:41:00 53° SSW 18:49:37 10° SE daylight
25 Feb - 20:54:05 10° W 21:00:22 17° SW 21:05:01 10° SSW daylight
26 Feb - 09:17:41 10° SSE 09:25:57 13° SE 09:34:21 10° ESE visible
26 Feb - 11:29:05 10° SSW 11:49:14 40° SE 12:07:04 10° E visible
26 Feb - 13:51:26 10° WSW 14:14:30 65° SSE 14:30:22 10° E daylight
26 Feb - 16:18:32 10° W 16:39:27 71° S 16:51:14 10° ESE daylight
26 Feb - 18:46:53 10° W 19:01:42 45° SSW 19:10:00 10° SE daylight
26 Feb - 21:18:45 10° WSW 21:20:27 11° SW 21:22:01 10° SW daylight
27 Feb - 09:33:15 10° SSE 09:46:31 20° SE 10:00:06 10° E visible
27 Feb - 11:49:00 10° SSW 12:10:16 47° SSE 12:28:40 10° E visible
27 Feb - 14:12:37 10° WSW 14:35:52 69° S 14:51:26 10° E daylight
27 Feb - 16:40:14 10° W 17:00:39 68° SSW 17:12:02 10° ESE daylight
27 Feb - 19:08:45 10° W 19:22:13 37° SW 19:30:09 10° SSE daylight
28 Feb - 09:51:05 10° S 10:07:06 26° SE 10:23:34 10° E visible
28 Feb - 12:09:19 10° SW 12:31:23 54° SSE 12:50:05 10° E visible
28 Feb - 14:33:59 10° WSW 14:57:16 72° S 15:12:28 10° E daylight
28 Feb - 17:01:57 10° W 17:21:43 63° SSW 17:32:44 10° ESE daylight
28 Feb - 19:30:48 10° W 19:42:34 29° SW 19:49:59 10° SSE daylight
29 Feb - 10:09:57 10° SSW 10:27:45 33° SE 10:46:05 10° E visible
29 Feb - 12:29:57 10° SW 12:52:38 61° SSE 13:11:22 10° E visible
29 Feb - 14:55:30 10° W 15:18:40 73° S 15:33:27 10° E daylight
29 Feb - 17:23:42 10° W 17:42:39 57° SSW 17:53:19 10° SE daylight
29 Feb - 19:53:18 10° W 20:02:46 21° SW 20:09:18 10° S daylight
01 Mar - 08:18:45 10° SE 08:26:04 13° SE 08:33:50 10° ESE visible
01 Mar - 10:29:26 10° SSW 10:48:31 41° SE 11:08:06 10° E visible
01 Mar - 12:50:50 10° WSW 13:13:58 67° SSE 13:32:35 10° E daylight
01 Mar - 15:17:06 10° W 15:40:02 73° S 15:54:23 10° ESE daylight
01 Mar - 17:45:30 10° W 18:03:25 49° SSW 18:13:43 10° SE daylight
01 Mar - 20:16:46 10° W 20:22:49 14° SW 20:27:35 10° SSW daylight
